Volver al catálogo

STARLINK-4082

ActivoComunicacionesVLEO
NORAD 52658·PAYLOAD·🇺🇸 United States

Lanzado May 18, 2022 desde Cape Canaveral Space Force Station

Loading…

Próximos Pases (próximas 24 horas)

TLE

ActualizadoSource: CelesTrak SupGP

Época: Sep 15, 2026, 01:20 UTC

1 52658C 22053C   26258.05604167 -.00025798  00000+0 -16179-2 0  2586
2 52658  53.1601  23.3922 0001191  87.7463 167.8528 15.08844789    14

Sigue STARLINK-4082 en tiempo real con AllMySat

Download on the App Store